TimeCEST,TemperatureF,Dew PointF,Humidity,Sea Level PressureIn,VisibilityMPH,Wind Direction,Wind SpeedMPH,Gust SpeedMPH,PrecipitationIn,Events,Conditions,WindDirDegrees,DateUTC
12:00 AM,32.0,30.2,93,29.98,-9999.0,East,2.3,-,N/A,,Clear,100,2012-10-10 22:00:00
1:00 AM,32.0,30.2,93,29.98,-9999.0,East,4.6,-,N/A,,Clear,90,2012-10-10 23:00:00
2:00 AM,30.2,28.4,93,29.98,-9999.0,Variable,1.2,-,N/A,,Clear,0,2012-10-11 00:00:00
3:00 AM,28.4,26.6,93,29.98,-9999.0,East,3.5,-,N/A,,Clear,90,2012-10-11 01:00:00
4:00 AM,28.4,28.4,100,29.98,6.2,Calm,Calm,-,N/A,Fog,Shallow Fog,0,2012-10-11 02:00:00
5:00 AM,30.2,28.4,93,29.98,6.2,Calm,Calm,-,N/A,Fog,Shallow Fog,0,2012-10-11 03:00:00
6:00 AM,28.4,28.4,100,29.98,0.6,Variable,2.3,-,N/A,Fog,Light Freezing Fog,0,2012-10-11 04:00:00
7:00 AM,26.6,26.6,100,29.98,0.2,Variable,2.3,-,N/A,Fog,Light Freezing Fog,0,2012-10-11 05:00:00
8:00 AM,28.4,26.6,93,29.98,0.2,East,3.5,-,N/A,Fog,Light Freezing Fog,100,2012-10-11 06:00:00
8:30 AM,28.4,28.4,100,29.98,0.5,East,4.6,-,N/A,Fog,Light Freezing Fog,90,2012-10-11 06:30:00
8:42 AM,32.0,30.2,93,29.98,3.1,East,3.5,-,N/A,Fog,Patches of Fog,90,2012-10-11 06:42:00
9:00 AM,33.8,33.8,100,29.98,6.2,East,3.5,-,N/A,Fog,Patches of Fog,100,2012-10-11 07:00:00
9:30 AM,39.2,37.4,93,29.98,6.2,Calm,Calm,-,N/A,,Partly Cloudy,0,2012-10-11 07:30:00
10:00 AM,41.0,37.4,87,29.98,6.2,Calm,Calm,-,N/A,,Partly Cloudy,0,2012-10-11 08:00:00
10:30 AM,42.8,37.4,81,29.98,6.2,Variable,1.2,-,N/A,,Partly Cloudy,0,2012-10-11 08:30:00
11:00 AM,46.4,35.6,66,29.98,6.2,SE,3.5,-,N/A,,Partly Cloudy,130,2012-10-11 09:00:00
11:30 AM,48.2,32.0,54,29.98,6.2,ESE,3.5,-,N/A,,Partly Cloudy,110,2012-10-11 09:30:00
12:00 PM,48.2,33.8,58,29.98,6.2,Variable,4.6,-,N/A,,Partly Cloudy,0,2012-10-11 10:00:00
12:30 PM,48.2,33.8,58,29.95,6.2,Variable,4.6,-,N/A,,Scattered Clouds,0,2012-10-11 10:30:00
1:00 PM,50.0,33.8,54,29.95,6.2,SE,4.6,-,N/A,,Scattered Clouds,140,2012-10-11 11:00:00
1:30 PM,50.0,32.0,50,29.92,6.2,ESE,4.6,-,N/A,,Partly Cloudy,110,2012-10-11 11:30:00
2:00 PM,50.0,33.8,54,29.92,6.2,Variable,4.6,-,N/A,,Partly Cloudy,0,2012-10-11 12:00:00
2:30 PM,50.0,32.0,50,29.92,6.2,ENE,5.8,-,N/A,,Partly Cloudy,70,2012-10-11 12:30:00
3:00 PM,51.8,33.8,50,29.92,6.2,East,5.8,-,N/A,,Partly Cloudy,100,2012-10-11 13:00:00
3:30 PM,51.8,33.8,50,29.89,6.2,ESE,5.8,-,N/A,,Partly Cloudy,120,2012-10-11 13:30:00
4:00 PM,50.0,33.8,54,29.89,6.2,East,6.9,-,N/A,,Partly Cloudy,90,2012-10-11 14:00:00
4:30 PM,50.0,33.8,54,29.89,6.2,ESE,5.8,-,N/A,,Partly Cloudy,120,2012-10-11 14:30:00
5:00 PM,50.0,33.8,54,29.89,6.2,ESE,6.9,-,N/A,,Partly Cloudy,110,2012-10-11 15:00:00
5:30 PM,48.2,33.8,58,29.89,-9999.0,East,8.1,-,N/A,,Clear,100,2012-10-11 15:30:00
6:00 PM,46.4,33.8,62,29.89,-9999.0,East,6.9,-,N/A,,Clear,100,2012-10-11 16:00:00
6:30 PM,44.6,33.8,66,29.89,-9999.0,ESE,4.6,-,N/A,,Clear,110,2012-10-11 16:30:00
7:00 PM,42.8,33.8,70,29.89,-9999.0,East,3.5,-,N/A,,Clear,100,2012-10-11 17:00:00
7:30 PM,39.2,32.0,75,29.89,-9999.0,East,4.6,-,N/A,,Clear,90,2012-10-11 17:30:00
8:00 PM,39.2,33.8,81,29.89,-9999.0,East,4.6,-,N/A,,Clear,90,2012-10-11 18:00:00
8:30 PM,39.2,33.8,81,29.89,-9999.0,East,4.6,-,N/A,,Clear,100,2012-10-11 18:30:00
9:00 PM,37.4,32.0,81,29.89,-9999.0,East,6.9,-,N/A,,Clear,100,2012-10-11 19:00:00
10:00 PM,37.4,32.0,81,29.89,-9999.0,East,4.6,-,N/A,,Clear,100,2012-10-11 20:00:00
11:00 PM,37.4,33.8,87,29.89,-9999.0,East,4.6,-,N/A,,Clear,100,2012-10-11 21:00:00